#datetime,building,power
2024-01-10T00:00:00,hld,3.71
2024-01-10T00:01:00,hld,3.71
2024-01-10T00:02:00,hld,3.55
2024-01-10T00:03:00,hld,3.56
2024-01-10T00:04:00,hld,3.58
2024-01-10T00:05:00,hld,3.58
2024-01-10T00:06:00,hld,3.58
2024-01-10T00:07:00,hld,3.62
2024-01-10T00:08:00,hld,3.60
2024-01-10T00:09:00,hld,3.60
2024-01-10T00:10:00,hld,4.36
2024-01-10T00:11:00,hld,3.60
2024-01-10T00:12:00,hld,3.56
2024-01-10T00:13:00,hld,3.58
2024-01-10T00:14:00,hld,3.59
2024-01-10T00:15:00,hld,3.60
2024-01-10T00:16:00,hld,3.57
2024-01-10T00:17:00,hld,4.30
2024-01-10T00:18:00,hld,3.60
2024-01-10T00:19:00,hld,3.58
2024-01-10T00:20:00,hld,3.59
2024-01-10T00:21:00,hld,3.56
2024-01-10T00:22:00,hld,3.59
2024-01-10T00:23:00,hld,3.56
2024-01-10T00:24:00,hld,3.60
2024-01-10T00:25:00,hld,3.57
2024-01-10T00:26:00,hld,3.60
2024-01-10T00:27:00,hld,3.58
2024-01-10T00:28:00,hld,3.59
2024-01-10T00:29:00,hld,3.73
2024-01-10T00:30:00,hld,3.72
2024-01-10T00:31:00,hld,3.72
2024-01-10T00:32:00,hld,3.72
2024-01-10T00:33:00,hld,4.90
2024-01-10T00:34:00,hld,3.72
2024-01-10T00:35:00,hld,3.70
2024-01-10T00:36:00,hld,3.71
2024-01-10T00:37:00,hld,3.72
2024-01-10T00:38:00,hld,3.68
2024-01-10T00:39:00,hld,3.70
2024-01-10T00:40:00,hld,3.70
2024-01-10T00:41:00,hld,3.71
2024-01-10T00:42:00,hld,3.68
2024-01-10T00:43:00,hld,3.87
2024-01-10T00:44:00,hld,3.56
2024-01-10T00:45:00,hld,3.57
2024-01-10T00:46:00,hld,3.59
2024-01-10T00:47:00,hld,3.55
2024-01-10T00:48:00,hld,3.57
2024-01-10T00:49:00,hld,3.55
2024-01-10T00:50:00,hld,3.88
2024-01-10T00:51:00,hld,3.83
2024-01-10T00:52:00,hld,3.83
2024-01-10T00:53:00,hld,3.81
2024-01-10T00:54:00,hld,3.81
2024-01-10T00:55:00,hld,3.80
2024-01-10T00:56:00,hld,3.82
2024-01-10T00:57:00,hld,3.81
2024-01-10T00:58:00,hld,3.81
2024-01-10T00:59:00,hld,3.79
2024-01-10T01:00:00,hld,3.82
2024-01-10T01:01:00,hld,3.84
2024-01-10T01:02:00,hld,3.82
2024-01-10T01:03:00,hld,3.81
2024-01-10T01:04:00,hld,3.80
2024-01-10T01:05:00,hld,3.83
2024-01-10T01:06:00,hld,3.83
2024-01-10T01:07:00,hld,3.98
2024-01-10T01:08:00,hld,3.69
2024-01-10T01:09:00,hld,3.70
2024-01-10T01:10:00,hld,5.17
2024-01-10T01:11:00,hld,3.70
2024-01-10T01:12:00,hld,3.69
2024-01-10T01:13:00,hld,3.71
2024-01-10T01:14:00,hld,3.58
2024-01-10T01:15:00,hld,3.57
2024-01-10T01:16:00,hld,3.56
2024-01-10T01:17:00,hld,3.57
2024-01-10T01:18:00,hld,3.56
2024-01-10T01:19:00,hld,3.59
2024-01-10T01:20:00,hld,3.59
2024-01-10T01:21:00,hld,3.58
2024-01-10T01:22:00,hld,3.56
2024-01-10T01:23:00,hld,3.61
2024-01-10T01:24:00,hld,4.28
2024-01-10T01:25:00,hld,3.59
2024-01-10T01:26:00,hld,3.60
2024-01-10T01:27:00,hld,3.58
2024-01-10T01:28:00,hld,3.54
2024-01-10T01:29:00,hld,3.61
2024-01-10T01:30:00,hld,3.63
2024-01-10T01:31:00,hld,3.64
2024-01-10T01:32:00,hld,3.58
2024-01-10T01:33:00,hld,3.61
2024-01-10T01:34:00,hld,3.54
2024-01-10T01:35:00,hld,4.83
2024-01-10T01:36:00,hld,3.59
2024-01-10T01:37:00,hld,3.62
2024-01-10T01:38:00,hld,3.59
2024-01-10T01:39:00,hld,3.58
2024-01-10T01:40:00,hld,3.61
2024-01-10T01:41:00,hld,3.68
2024-01-10T01:42:00,hld,3.63
2024-01-10T01:43:00,hld,2.77
2024-01-10T01:44:00,hld,2.77
2024-01-10T01:45:00,hld,3.80
2024-01-10T01:46:00,hld,3.44
2024-01-10T01:47:00,hld,3.43
2024-01-10T01:48:00,hld,3.40
2024-01-10T01:49:00,hld,3.41
2024-01-10T01:50:00,hld,3.38
2024-01-10T01:51:00,hld,3.40
2024-01-10T01:52:00,hld,3.42
2024-01-10T01:53:00,hld,3.39
2024-01-10T01:54:00,hld,3.40
2024-01-10T01:55:00,hld,3.27
2024-01-10T01:56:00,hld,3.27
2024-01-10T01:57:00,hld,3.24
2024-01-10T01:58:00,hld,3.29
2024-01-10T01:59:00,hld,3.26
2024-01-10T02:00:00,hld,3.30
2024-01-10T02:01:00,hld,3.27
2024-01-10T02:02:00,hld,3.29
2024-01-10T02:03:00,hld,3.28
2024-01-10T02:04:00,hld,3.27
2024-01-10T02:05:00,hld,3.27
2024-01-10T02:06:00,hld,3.26
2024-01-10T02:07:00,hld,3.32
2024-01-10T02:08:00,hld,3.26
2024-01-10T02:09:00,hld,3.33
2024-01-10T02:10:00,hld,3.26
2024-01-10T02:11:00,hld,3.52
2024-01-10T02:12:00,hld,3.26
2024-01-10T02:13:00,hld,3.42
2024-01-10T02:14:00,hld,3.41
2024-01-10T02:15:00,hld,3.40
2024-01-10T02:16:00,hld,3.39
2024-01-10T02:17:00,hld,3.40
2024-01-10T02:18:00,hld,3.38
2024-01-10T02:19:00,hld,3.41
2024-01-10T02:20:00,hld,3.31
2024-01-10T02:21:00,hld,3.28
2024-01-10T02:22:00,hld,3.27
2024-01-10T02:23:00,hld,3.25
2024-01-10T02:24:00,hld,3.27
2024-01-10T02:25:00,hld,3.28
2024-01-10T02:26:00,hld,3.27
2024-01-10T02:27:00,hld,3.24
2024-01-10T02:28:00,hld,3.29
2024-01-10T02:29:00,hld,3.28
2024-01-10T02:30:00,hld,3.31
2024-01-10T02:31:00,hld,3.26
2024-01-10T02:32:00,hld,3.27
2024-01-10T02:33:00,hld,3.26
2024-01-10T02:34:00,hld,3.27
2024-01-10T02:35:00,hld,4.06
2024-01-10T02:36:00,hld,3.27
2024-01-10T02:37:00,hld,3.27
2024-01-10T02:38:00,hld,3.27
2024-01-10T02:39:00,hld,3.28
2024-01-10T02:40:00,hld,3.26
2024-01-10T02:41:00,hld,3.27
2024-01-10T02:42:00,hld,3.27
2024-01-10T02:43:00,hld,3.55
2024-01-10T02:44:00,hld,3.26
2024-01-10T02:45:00,hld,3.29
2024-01-10T02:46:00,hld,3.26
2024-01-10T02:47:00,hld,3.27
2024-01-10T02:48:00,hld,3.27
2024-01-10T02:49:00,hld,4.45
2024-01-10T02:50:00,hld,3.54
2024-01-10T02:51:00,hld,3.28
2024-01-10T02:52:00,hld,3.27
2024-01-10T02:53:00,hld,3.45
2024-01-10T02:54:00,hld,3.42
2024-01-10T02:55:00,hld,3.41
2024-01-10T02:56:00,hld,3.42
2024-01-10T02:57:00,hld,3.40
2024-01-10T02:58:00,hld,3.41
2024-01-10T02:59:00,hld,3.42
2024-01-10T03:00:00,hld,3.40
2024-01-10T03:01:00,hld,3.43
2024-01-10T03:02:00,hld,12.99
2024-01-10T03:03:00,hld,11.88
2024-01-10T03:04:00,hld,11.71
2024-01-10T03:05:00,hld,11.60
2024-01-10T03:06:00,hld,11.47
2024-01-10T03:07:00,hld,11.24
2024-01-10T03:08:00,hld,3.27
2024-01-10T03:09:00,hld,3.28
2024-01-10T03:10:00,hld,3.25
2024-01-10T03:11:00,hld,3.25
2024-01-10T03:12:00,hld,3.29
2024-01-10T03:13:00,hld,3.27
2024-01-10T03:14:00,hld,3.25
2024-01-10T03:15:00,hld,3.26
2024-01-10T03:16:00,hld,3.27
2024-01-10T03:17:00,hld,3.26
2024-01-10T03:18:00,hld,3.23
2024-01-10T03:19:00,hld,3.27
2024-01-10T03:20:00,hld,3.25
2024-01-10T03:21:00,hld,3.41
2024-01-10T03:22:00,hld,3.38
2024-01-10T03:23:00,hld,3.39
2024-01-10T03:24:00,hld,3.39
2024-01-10T03:25:00,hld,3.38
2024-01-10T03:26:00,hld,3.38
2024-01-10T03:27:00,hld,3.38
2024-01-10T03:28:00,hld,2.65
2024-01-10T03:29:00,hld,4.16
2024-01-10T03:30:00,hld,3.27
2024-01-10T03:31:00,hld,3.34
2024-01-10T03:32:00,hld,3.28
2024-01-10T03:33:00,hld,3.27
2024-01-10T03:34:00,hld,3.26
2024-01-10T03:35:00,hld,3.22
2024-01-10T03:36:00,hld,3.28
2024-01-10T03:37:00,hld,3.26
2024-01-10T03:38:00,hld,4.73
2024-01-10T03:39:00,hld,3.26
2024-01-10T03:40:00,hld,3.29
2024-01-10T03:41:00,hld,3.27
2024-01-10T03:42:00,hld,3.91
2024-01-10T03:43:00,hld,3.28
2024-01-10T03:44:00,hld,3.26
2024-01-10T03:45:00,hld,3.89
2024-01-10T03:46:00,hld,3.25
2024-01-10T03:47:00,hld,3.27
2024-01-10T03:48:00,hld,3.27
2024-01-10T03:49:00,hld,3.25
2024-01-10T03:50:00,hld,3.93
2024-01-10T03:51:00,hld,3.26
2024-01-10T03:52:00,hld,3.31
2024-01-10T03:53:00,hld,3.32
2024-01-10T03:54:00,hld,3.27
2024-01-10T03:55:00,hld,3.27
2024-01-10T03:56:00,hld,3.29
2024-01-10T03:57:00,hld,3.27
2024-01-10T03:58:00,hld,3.28
2024-01-10T03:59:00,hld,3.26
2024-01-10T04:00:00,hld,3.27
2024-01-10T04:01:00,hld,3.27
2024-01-10T04:02:00,hld,3.28
2024-01-10T04:03:00,hld,3.27
2024-01-10T04:04:00,hld,3.41
2024-01-10T04:05:00,hld,3.41
2024-01-10T04:06:00,hld,3.40
2024-01-10T04:07:00,hld,3.42
2024-01-10T04:08:00,hld,3.42
2024-01-10T04:09:00,hld,3.38
2024-01-10T04:10:00,hld,3.40
2024-01-10T04:11:00,hld,3.40
2024-01-10T04:12:00,hld,3.41
2024-01-10T04:13:00,hld,3.69
2024-01-10T04:14:00,hld,3.40
2024-01-10T04:15:00,hld,3.42
2024-01-10T04:16:00,hld,3.31
2024-01-10T04:17:00,hld,3.29
2024-01-10T04:18:00,hld,3.29
2024-01-10T04:19:00,hld,3.29
2024-01-10T04:20:00,hld,3.27
2024-01-10T04:21:00,hld,3.28
2024-01-10T04:22:00,hld,3.28
2024-01-10T04:23:00,hld,3.26
2024-01-10T04:24:00,hld,3.27
2024-01-10T04:25:00,hld,3.26
2024-01-10T04:26:00,hld,3.44
2024-01-10T04:27:00,hld,3.43
2024-01-10T04:28:00,hld,3.40
2024-01-10T04:29:00,hld,3.40
2024-01-10T04:30:00,hld,3.40
2024-01-10T04:31:00,hld,3.41
2024-01-10T04:32:00,hld,3.54
2024-01-10T04:33:00,hld,3.40
2024-01-10T04:34:00,hld,3.30
2024-01-10T04:35:00,hld,3.28
2024-01-10T04:36:00,hld,3.31
2024-01-10T04:37:00,hld,3.28
2024-01-10T04:38:00,hld,3.92
2024-01-10T04:39:00,hld,3.28
2024-01-10T04:40:00,hld,3.29
2024-01-10T04:41:00,hld,3.27
2024-01-10T04:42:00,hld,3.28
2024-01-10T04:43:00,hld,3.33
2024-01-10T04:44:00,hld,3.30
2024-01-10T04:45:00,hld,3.29
2024-01-10T04:46:00,hld,3.27
2024-01-10T04:47:00,hld,3.31
2024-01-10T04:48:00,hld,3.66
2024-01-10T04:49:00,hld,3.27
2024-01-10T04:50:00,hld,3.27
2024-01-10T04:51:00,hld,3.27
2024-01-10T04:52:00,hld,5.36
2024-01-10T04:53:00,hld,3.25
2024-01-10T04:54:00,hld,3.26
2024-01-10T04:55:00,hld,3.74
2024-01-10T04:56:00,hld,3.25
2024-01-10T04:57:00,hld,3.27
2024-01-10T04:58:00,hld,3.27
2024-01-10T04:59:00,hld,3.26
2024-01-10T05:00:00,hld,3.52
2024-01-10T05:01:00,hld,3.27
2024-01-10T05:02:00,hld,3.26
2024-01-10T05:03:00,hld,3.24
2024-01-10T05:04:00,hld,3.26
2024-01-10T05:05:00,hld,3.25
2024-01-10T05:06:00,hld,3.24
2024-01-10T05:07:00,hld,3.27
2024-01-10T05:08:00,hld,3.26
2024-01-10T05:09:00,hld,3.27
2024-01-10T05:10:00,hld,3.25
2024-01-10T05:11:00,hld,3.37
2024-01-10T05:12:00,hld,3.41
2024-01-10T05:13:00,hld,3.36
2024-01-10T05:14:00,hld,3.38
2024-01-10T05:15:00,hld,3.41
2024-01-10T05:16:00,hld,3.37
2024-01-10T05:17:00,hld,3.39
2024-01-10T05:18:00,hld,3.38
2024-01-10T05:19:00,hld,3.38
2024-01-10T05:20:00,hld,3.37
2024-01-10T05:21:00,hld,3.27
2024-01-10T05:22:00,hld,3.25
2024-01-10T05:23:00,hld,3.26
2024-01-10T05:24:00,hld,3.29
2024-01-10T05:25:00,hld,3.24
2024-01-10T05:26:00,hld,3.29
2024-01-10T05:27:00,hld,3.26
2024-01-10T05:28:00,hld,3.27
2024-01-10T05:29:00,hld,3.29
2024-01-10T05:30:00,hld,3.40
2024-01-10T05:31:00,hld,3.57
2024-01-10T05:32:00,hld,3.40
2024-01-10T05:33:00,hld,3.38
2024-01-10T05:34:00,hld,3.37
2024-01-10T05:35:00,hld,3.38
2024-01-10T05:36:00,hld,3.32
2024-01-10T05:37:00,hld,3.38
2024-01-10T05:38:00,hld,3.37
2024-01-10T05:39:00,hld,3.26
2024-01-10T05:40:00,hld,3.25
2024-01-10T05:41:00,hld,3.60
2024-01-10T05:42:00,hld,3.26
2024-01-10T05:43:00,hld,3.27
2024-01-10T05:44:00,hld,3.26
2024-01-10T05:45:00,hld,3.25
2024-01-10T05:46:00,hld,3.26
2024-01-10T05:47:00,hld,3.27
2024-01-10T05:48:00,hld,3.24
2024-01-10T05:49:00,hld,3.23
2024-01-10T05:50:00,hld,3.24
2024-01-10T05:51:00,hld,3.26
2024-01-10T05:52:00,hld,3.26
2024-01-10T05:53:00,hld,3.25
2024-01-10T05:54:00,hld,3.25
2024-01-10T05:55:00,hld,3.25
2024-01-10T05:56:00,hld,3.25
2024-01-10T05:57:00,hld,3.26
2024-01-10T05:58:00,hld,3.25
2024-01-10T05:59:00,hld,3.27
2024-01-10T06:00:00,hld,3.25
2024-01-10T06:01:00,hld,3.26
2024-01-10T06:02:00,hld,3.26
2024-01-10T06:03:00,hld,3.59
2024-01-10T06:04:00,hld,4.02
2024-01-10T06:05:00,hld,3.69
2024-01-10T06:06:00,hld,3.69
2024-01-10T06:07:00,hld,3.71
2024-01-10T06:08:00,hld,3.71
2024-01-10T06:09:00,hld,4.06
2024-01-10T06:10:00,hld,3.70
2024-01-10T06:11:00,hld,7.73
2024-01-10T06:12:00,hld,7.72
2024-01-10T06:13:00,hld,7.67
2024-01-10T06:14:00,hld,7.85
2024-01-10T06:15:00,hld,18.24
2024-01-10T06:16:00,hld,7.97
2024-01-10T06:17:00,hld,4.04
2024-01-10T06:18:00,hld,4.07
2024-01-10T06:19:00,hld,4.06
2024-01-10T06:20:00,hld,4.08
2024-01-10T06:21:00,hld,3.93
2024-01-10T06:22:00,hld,4.81
2024-01-10T06:23:00,hld,4.86
2024-01-10T06:24:00,hld,4.83
2024-01-10T06:25:00,hld,4.78
2024-01-10T06:26:00,hld,4.86
2024-01-10T06:27:00,hld,4.05
2024-01-10T06:28:00,hld,4.89
2024-01-10T06:29:00,hld,4.03
2024-01-10T06:30:00,hld,4.07
2024-01-10T06:31:00,hld,19.11
2024-01-10T06:32:00,hld,8.97
2024-01-10T06:33:00,hld,17.36
2024-01-10T06:34:00,hld,17.53
2024-01-10T06:35:00,hld,13.14
2024-01-10T06:36:00,hld,13.06
2024-01-10T06:37:00,hld,4.18
2024-01-10T06:38:00,hld,4.11
2024-01-10T06:39:00,hld,5.00
2024-01-10T06:40:00,hld,4.95
2024-01-10T06:41:00,hld,4.92
2024-01-10T06:42:00,hld,4.96
2024-01-10T06:43:00,hld,4.95
2024-01-10T06:44:00,hld,4.95
2024-01-10T06:45:00,hld,4.10
2024-01-10T06:46:00,hld,5.02
2024-01-10T06:47:00,hld,4.67
2024-01-10T06:48:00,hld,4.69
2024-01-10T06:49:00,hld,4.69
2024-01-10T06:50:00,hld,5.21
2024-01-10T06:51:00,hld,3.80
2024-01-10T06:52:00,hld,8.73
2024-01-10T06:53:00,hld,8.71
2024-01-10T06:54:00,hld,7.84
2024-01-10T06:55:00,hld,8.66
2024-01-10T06:56:00,hld,8.67
2024-01-10T06:57:00,hld,3.78
2024-01-10T06:58:00,hld,3.77
2024-01-10T06:59:00,hld,3.82
2024-01-10T07:00:00,hld,3.73
2024-01-10T07:01:00,hld,5.91
2024-01-10T07:02:00,hld,6.19
2024-01-10T07:03:00,hld,6.24
2024-01-10T07:04:00,hld,6.25
2024-01-10T07:05:00,hld,6.21
2024-01-10T07:06:00,hld,6.24
2024-01-10T07:07:00,hld,6.29
2024-01-10T07:08:00,hld,6.24
2024-01-10T07:09:00,hld,6.20
2024-01-10T07:10:00,hld,6.27
2024-01-10T07:11:00,hld,6.26
2024-01-10T07:12:00,hld,6.10
2024-01-10T07:13:00,hld,6.04
2024-01-10T07:14:00,hld,6.03
2024-01-10T07:15:00,hld,6.02
2024-01-10T07:16:00,hld,5.96
2024-01-10T07:17:00,hld,5.98
2024-01-10T07:18:00,hld,5.90
2024-01-10T07:19:00,hld,5.89
2024-01-10T07:20:00,hld,5.81
2024-01-10T07:21:00,hld,5.77
2024-01-10T07:22:00,hld,5.78
2024-01-10T07:23:00,hld,5.79
2024-01-10T07:24:00,hld,5.78
2024-01-10T07:25:00,hld,5.55
2024-01-10T07:26:00,hld,5.51
2024-01-10T07:27:00,hld,5.51
2024-01-10T07:28:00,hld,5.43
2024-01-10T07:29:00,hld,5.41
2024-01-10T07:30:00,hld,5.62
2024-01-10T07:31:00,hld,5.69
2024-01-10T07:32:00,hld,5.66
2024-01-10T07:33:00,hld,5.70
2024-01-10T07:34:00,hld,5.72
2024-01-10T07:35:00,hld,5.60
2024-01-10T07:36:00,hld,5.54
2024-01-10T07:37:00,hld,5.51
2024-01-10T07:38:00,hld,5.54
2024-01-10T07:39:00,hld,3.18
2024-01-10T07:40:00,hld,3.37
2024-01-10T07:41:00,hld,3.78
2024-01-10T07:42:00,hld,3.18
2024-01-10T07:43:00,hld,3.13
2024-01-10T07:44:00,hld,3.24
2024-01-10T07:45:00,hld,3.28
2024-01-10T07:46:00,hld,3.29
2024-01-10T07:47:00,hld,3.26
2024-01-10T07:48:00,hld,3.27
2024-01-10T07:49:00,hld,3.42
2024-01-10T07:50:00,hld,3.19
2024-01-10T07:51:00,hld,3.24
2024-01-10T07:52:00,hld,3.20
2024-01-10T07:53:00,hld,3.21
2024-01-10T07:54:00,hld,3.18
2024-01-10T07:55:00,hld,3.20
2024-01-10T07:56:00,hld,3.22
2024-01-10T07:57:00,hld,3.21
2024-01-10T07:58:00,hld,3.04
2024-01-10T07:59:00,hld,3.06
2024-01-10T08:00:00,hld,3.08
2024-01-10T08:01:00,hld,3.08
2024-01-10T08:02:00,hld,3.64
2024-01-10T08:03:00,hld,3.03
2024-01-10T08:04:00,hld,3.05
2024-01-10T08:05:00,hld,3.07
2024-01-10T08:06:00,hld,3.07
2024-01-10T08:07:00,hld,6.40
2024-01-10T08:08:00,hld,7.21
2024-01-10T08:09:00,hld,8.69
2024-01-10T08:10:00,hld,8.66
2024-01-10T08:11:00,hld,8.62
2024-01-10T08:12:00,hld,8.86
2024-01-10T08:13:00,hld,9.03
2024-01-10T08:14:00,hld,9.06
2024-01-10T08:15:00,hld,8.80
2024-01-10T08:16:00,hld,8.80
2024-01-10T08:17:00,hld,8.84
2024-01-10T08:18:00,hld,8.80
2024-01-10T08:19:00,hld,8.78
2024-01-10T08:20:00,hld,8.74
2024-01-10T08:21:00,hld,8.70
2024-01-10T08:22:00,hld,8.72
2024-01-10T08:23:00,hld,12.71
2024-01-10T08:24:00,hld,12.68
2024-01-10T08:25:00,hld,12.75
2024-01-10T08:26:00,hld,12.75
2024-01-10T08:27:00,hld,8.85
2024-01-10T08:28:00,hld,8.77
2024-01-10T08:29:00,hld,8.76
2024-01-10T08:30:00,hld,8.72
2024-01-10T08:31:00,hld,8.75
2024-01-10T08:32:00,hld,8.77
2024-01-10T08:33:00,hld,8.73
2024-01-10T08:34:00,hld,8.37
2024-01-10T08:35:00,hld,8.39
2024-01-10T08:36:00,hld,8.45
2024-01-10T08:37:00,hld,8.41
2024-01-10T08:38:00,hld,8.35
2024-01-10T08:39:00,hld,8.27
2024-01-10T08:40:00,hld,8.51
2024-01-10T08:41:00,hld,8.49
2024-01-10T08:42:00,hld,8.49
2024-01-10T08:43:00,hld,8.49
2024-01-10T08:44:00,hld,8.51
2024-01-10T08:45:00,hld,8.50
2024-01-10T08:46:00,hld,8.56
2024-01-10T08:47:00,hld,8.59
2024-01-10T08:48:00,hld,8.50
2024-01-10T08:49:00,hld,9.47
2024-01-10T08:50:00,hld,8.75
2024-01-10T08:51:00,hld,8.58
2024-01-10T08:52:00,hld,8.57
2024-01-10T08:53:00,hld,8.61
2024-01-10T08:54:00,hld,8.74
2024-01-10T08:55:00,hld,8.71
2024-01-10T08:56:00,hld,8.70
2024-01-10T08:57:00,hld,8.73
2024-01-10T08:58:00,hld,8.70
2024-01-10T08:59:00,hld,8.79
2024-01-10T09:00:00,hld,8.78
2024-01-10T09:01:00,hld,8.74
2024-01-10T09:02:00,hld,8.75
2024-01-10T09:03:00,hld,8.84
2024-01-10T09:04:00,hld,8.82
2024-01-10T09:05:00,hld,8.81
2024-01-10T09:06:00,hld,8.80
2024-01-10T09:07:00,hld,8.84
2024-01-10T09:08:00,hld,8.64
2024-01-10T09:09:00,hld,8.69
2024-01-10T09:10:00,hld,8.71
2024-01-10T09:11:00,hld,8.69
2024-01-10T09:12:00,hld,8.78
2024-01-10T09:13:00,hld,8.80
2024-01-10T09:14:00,hld,8.79
2024-01-10T09:15:00,hld,8.71
2024-01-10T09:16:00,hld,8.74
2024-01-10T09:17:00,hld,8.73
2024-01-10T09:18:00,hld,8.73
2024-01-10T09:19:00,hld,8.76
2024-01-10T09:20:00,hld,8.76
2024-01-10T09:21:00,hld,9.06
2024-01-10T09:22:00,hld,9.16
2024-01-10T09:23:00,hld,9.15
2024-01-10T09:24:00,hld,10.49
2024-01-10T09:25:00,hld,10.58
2024-01-10T09:26:00,hld,10.66
2024-01-10T09:27:00,hld,10.67
2024-01-10T09:28:00,hld,10.52
2024-01-10T09:29:00,hld,9.19
2024-01-10T09:30:00,hld,9.13
2024-01-10T09:31:00,hld,9.07
2024-01-10T09:32:00,hld,9.10
2024-01-10T09:33:00,hld,9.10
2024-01-10T09:34:00,hld,9.11
2024-01-10T09:35:00,hld,9.21
2024-01-10T09:36:00,hld,9.20
2024-01-10T09:37:00,hld,10.10
2024-01-10T09:38:00,hld,10.06
2024-01-10T09:39:00,hld,9.98
2024-01-10T09:40:00,hld,10.02
2024-01-10T09:41:00,hld,10.01
2024-01-10T09:42:00,hld,9.91
2024-01-10T09:43:00,hld,9.89
2024-01-10T09:44:00,hld,9.86
2024-01-10T09:45:00,hld,9.87
2024-01-10T09:46:00,hld,9.89
2024-01-10T09:47:00,hld,9.90
2024-01-10T09:48:00,hld,9.74
2024-01-10T09:49:00,hld,9.86
2024-01-10T09:50:00,hld,9.94
2024-01-10T09:51:00,hld,9.97
2024-01-10T09:52:00,hld,9.93
2024-01-10T09:53:00,hld,9.89
2024-01-10T09:54:00,hld,9.89
2024-01-10T09:55:00,hld,9.61
2024-01-10T09:56:00,hld,10.24
2024-01-10T09:57:00,hld,9.73
2024-01-10T09:58:00,hld,10.33
2024-01-10T09:59:00,hld,18.37
2024-01-10T10:00:00,hld,18.78
2024-01-10T10:01:00,hld,18.21
2024-01-10T10:02:00,hld,18.31
2024-01-10T10:03:00,hld,18.28
2024-01-10T10:04:00,hld,10.29
2024-01-10T10:05:00,hld,10.32
2024-01-10T10:06:00,hld,10.45
2024-01-10T10:07:00,hld,10.46
2024-01-10T10:08:00,hld,10.45
2024-01-10T10:09:00,hld,10.45
2024-01-10T10:10:00,hld,10.48
2024-01-10T10:11:00,hld,10.48
2024-01-10T10:12:00,hld,10.70
2024-01-10T10:13:00,hld,10.80
2024-01-10T10:14:00,hld,10.81
2024-01-10T10:15:00,hld,10.77
2024-01-10T10:16:00,hld,10.78
2024-01-10T10:17:00,hld,10.63
2024-01-10T10:18:00,hld,10.63
2024-01-10T10:19:00,hld,10.63
2024-01-10T10:20:00,hld,10.65
2024-01-10T10:21:00,hld,10.63
2024-01-10T10:22:00,hld,10.49
2024-01-10T10:23:00,hld,10.47
2024-01-10T10:24:00,hld,14.50
2024-01-10T10:25:00,hld,14.41
2024-01-10T10:26:00,hld,14.38
2024-01-10T10:27:00,hld,14.56
2024-01-10T10:28:00,hld,10.75
2024-01-10T10:29:00,hld,10.65
2024-01-10T10:30:00,hld,10.69
2024-01-10T10:31:00,hld,10.72
2024-01-10T10:32:00,hld,10.64
2024-01-10T10:33:00,hld,12.39
2024-01-10T10:34:00,hld,10.77
2024-01-10T10:35:00,hld,10.70
2024-01-10T10:36:00,hld,10.74
2024-01-10T10:37:00,hld,10.83
2024-01-10T10:38:00,hld,10.79
2024-01-10T10:39:00,hld,10.78
2024-01-10T10:40:00,hld,10.80
2024-01-10T10:41:00,hld,10.69
2024-01-10T10:42:00,hld,10.68
2024-01-10T10:43:00,hld,10.63
2024-01-10T10:44:00,hld,10.66
2024-01-10T10:45:00,hld,10.62
2024-01-10T10:46:00,hld,10.60
2024-01-10T10:47:00,hld,10.62
2024-01-10T10:48:00,hld,10.46
2024-01-10T10:49:00,hld,11.16
2024-01-10T10:50:00,hld,10.44
2024-01-10T10:51:00,hld,10.45
2024-01-10T10:52:00,hld,11.64
2024-01-10T10:53:00,hld,9.74
2024-01-10T10:54:00,hld,9.75
2024-01-10T10:55:00,hld,9.72
2024-01-10T10:56:00,hld,9.81
2024-01-10T10:57:00,hld,9.81
2024-01-10T10:58:00,hld,9.80
2024-01-10T10:59:00,hld,9.82
2024-01-10T11:00:00,hld,9.82
2024-01-10T11:01:00,hld,9.76
2024-01-10T11:02:00,hld,9.81
2024-01-10T11:03:00,hld,9.79
2024-01-10T11:04:00,hld,9.80
2024-01-10T11:05:00,hld,9.78
2024-01-10T11:06:00,hld,9.62
2024-01-10T11:07:00,hld,9.61
2024-01-10T11:08:00,hld,9.62
2024-01-10T11:09:00,hld,9.76
2024-01-10T11:10:00,hld,9.74
2024-01-10T11:11:00,hld,9.82
2024-01-10T11:12:00,hld,9.79
2024-01-10T11:13:00,hld,9.80
2024-01-10T11:14:00,hld,9.95
2024-01-10T11:15:00,hld,10.07
2024-01-10T11:16:00,hld,10.07
2024-01-10T11:17:00,hld,10.17
2024-01-10T11:18:00,hld,10.13
2024-01-10T11:19:00,hld,10.22
2024-01-10T11:20:00,hld,10.43
2024-01-10T11:21:00,hld,10.41
2024-01-10T11:22:00,hld,10.37
2024-01-10T11:23:00,hld,10.28
2024-01-10T11:24:00,hld,10.15
2024-01-10T11:25:00,hld,10.17
2024-01-10T11:26:00,hld,10.45
2024-01-10T11:27:00,hld,11.16
2024-01-10T11:28:00,hld,9.63
2024-01-10T11:29:00,hld,9.66
2024-01-10T11:30:00,hld,9.50
2024-01-10T11:31:00,hld,9.68
2024-01-10T11:32:00,hld,9.70
2024-01-10T11:33:00,hld,9.69
2024-01-10T11:34:00,hld,9.63
2024-01-10T11:35:00,hld,9.62
2024-01-10T11:36:00,hld,9.63
2024-01-10T11:37:00,hld,9.63
2024-01-10T11:38:00,hld,9.63
2024-01-10T11:39:00,hld,9.61
2024-01-10T11:40:00,hld,9.54
2024-01-10T11:41:00,hld,10.20
2024-01-10T11:42:00,hld,9.58
2024-01-10T11:43:00,hld,9.53
2024-01-10T11:44:00,hld,9.48
2024-01-10T11:45:00,hld,9.49
2024-01-10T11:46:00,hld,9.46
2024-01-10T11:47:00,hld,9.51
2024-01-10T11:48:00,hld,9.68
2024-01-10T11:49:00,hld,9.58
2024-01-10T11:50:00,hld,10.89
2024-01-10T11:51:00,hld,10.99
2024-01-10T11:52:00,hld,11.04
2024-01-10T11:53:00,hld,14.73
2024-01-10T11:54:00,hld,14.96
2024-01-10T11:55:00,hld,14.81
2024-01-10T11:56:00,hld,13.46
2024-01-10T11:57:00,hld,9.49
2024-01-10T11:58:00,hld,9.53
2024-01-10T11:59:00,hld,9.52
2024-01-10T12:00:00,hld,9.49
2024-01-10T12:01:00,hld,9.49
2024-01-10T12:02:00,hld,11.00
2024-01-10T12:03:00,hld,9.62
2024-01-10T12:04:00,hld,9.63
2024-01-10T12:05:00,hld,9.60
2024-01-10T12:06:00,hld,9.61
2024-01-10T12:07:00,hld,9.68
2024-01-10T12:08:00,hld,9.63
2024-01-10T12:09:00,hld,9.63
2024-01-10T12:10:00,hld,10.31
2024-01-10T12:11:00,hld,9.63
2024-01-10T12:12:00,hld,9.68
2024-01-10T12:13:00,hld,9.52
2024-01-10T12:14:00,hld,9.51
2024-01-10T12:15:00,hld,9.69
2024-01-10T12:16:00,hld,10.19
2024-01-10T12:17:00,hld,9.55
2024-01-10T12:18:00,hld,9.48
2024-01-10T12:19:00,hld,9.50
2024-01-10T12:20:00,hld,9.50
2024-01-10T12:21:00,hld,9.57
2024-01-10T12:22:00,hld,9.68
2024-01-10T12:23:00,hld,9.61
2024-01-10T12:24:00,hld,9.67
2024-01-10T12:25:00,hld,9.73
2024-01-10T12:26:00,hld,9.67
2024-01-10T12:27:00,hld,9.71
2024-01-10T12:28:00,hld,9.69
2024-01-10T12:29:00,hld,9.71
2024-01-10T12:30:00,hld,11.32
2024-01-10T12:31:00,hld,11.27
2024-01-10T12:32:00,hld,9.64
2024-01-10T12:33:00,hld,9.66
2024-01-10T12:34:00,hld,10.21
2024-01-10T12:35:00,hld,8.96
2024-01-10T12:36:00,hld,9.02
2024-01-10T12:37:00,hld,8.99
2024-01-10T12:38:00,hld,9.01
2024-01-10T12:39:00,hld,9.01
2024-01-10T12:40:00,hld,8.05
2024-01-10T12:41:00,hld,8.07
2024-01-10T12:42:00,hld,7.97
2024-01-10T12:43:00,hld,8.49
2024-01-10T12:44:00,hld,7.80
2024-01-10T12:45:00,hld,7.81
2024-01-10T12:46:00,hld,7.83
2024-01-10T12:47:00,hld,7.82
2024-01-10T12:48:00,hld,7.82
2024-01-10T12:49:00,hld,7.74
2024-01-10T12:50:00,hld,7.57
2024-01-10T12:51:00,hld,7.58
2024-01-10T12:52:00,hld,7.61
2024-01-10T12:53:00,hld,7.60
2024-01-10T12:54:00,hld,7.62
2024-01-10T12:55:00,hld,7.80
2024-01-10T12:56:00,hld,7.54
2024-01-10T12:57:00,hld,7.54
2024-01-10T12:58:00,hld,7.65
2024-01-10T12:59:00,hld,7.72
2024-01-10T13:00:00,hld,7.72
2024-01-10T13:01:00,hld,9.17
2024-01-10T13:02:00,hld,9.00
2024-01-10T13:03:00,hld,9.02
2024-01-10T13:04:00,hld,11.73
2024-01-10T13:05:00,hld,12.38
2024-01-10T13:06:00,hld,11.81
2024-01-10T13:07:00,hld,11.84
2024-01-10T13:08:00,hld,7.83
2024-01-10T13:09:00,hld,7.87
2024-01-10T13:10:00,hld,6.69
2024-01-10T13:11:00,hld,6.57
2024-01-10T13:12:00,hld,6.51
2024-01-10T13:13:00,hld,6.52
2024-01-10T13:14:00,hld,6.51
2024-01-10T13:15:00,hld,6.48
2024-01-10T13:16:00,hld,6.45
2024-01-10T13:17:00,hld,6.48
2024-01-10T13:18:00,hld,6.81
2024-01-10T13:19:00,hld,6.46
2024-01-10T13:20:00,hld,6.65
2024-01-10T13:21:00,hld,6.66
2024-01-10T13:22:00,hld,6.62
2024-01-10T13:23:00,hld,6.60
2024-01-10T13:24:00,hld,6.79
2024-01-10T13:25:00,hld,6.75
2024-01-10T13:26:00,hld,6.83
2024-01-10T13:27:00,hld,6.66
2024-01-10T13:28:00,hld,6.69
2024-01-10T13:29:00,hld,6.64
2024-01-10T13:30:00,hld,6.71
2024-01-10T13:31:00,hld,7.38
2024-01-10T13:32:00,hld,6.70
2024-01-10T13:33:00,hld,6.67
2024-01-10T13:34:00,hld,6.69
2024-01-10T13:35:00,hld,6.69
2024-01-10T13:36:00,hld,6.56
2024-01-10T13:37:00,hld,6.54
2024-01-10T13:38:00,hld,6.53
2024-01-10T13:39:00,hld,6.52
2024-01-10T13:40:00,hld,6.63
2024-01-10T13:41:00,hld,6.57